ROMMA est une association bénévole à but non lucratif. Votre soutien est indispensable : ADHERER à ROMMA ou FAIRE un DON

Val-d'Arly - (73, Savoie)

Beaufortain (2050 m)   Longitude: 06° 35' 21" E   Latitude: 45° 46' 53" N Station romma n°118
 

Détail journalier du     <<     >>

Température Precipitation Humidité Vent Dir Rafale Dir. rafale Ensol.
Heure (°C) (mm) (%) (km/h) (km/h) (min)
01:00 10.40826S10S0
02:00 9.80853SSO8SSO0
03:00 9.60874SSO6SSO0
04:00 9.40882SSO6SSO0
05:00 9.30896SSO8SSO0
06:00 9.30883SSO6SSO0
07:00 9.60876SO11OSO10
08:00 10.60853SO6SO60
09:00 11.90811SSO5O60
10:00 12.60833O13OSO30
11:00 13.20774ENE16OSO50
12:00 13.70766NE19NNE60
13:00 14.00728NE19NE50
14:00 14.20647NNE18NE20
15:00 15.20589NE21NE30
16:00 16.305814NE29N40
17:00 16.60606NE21NNO50
18:00 16.90599N23NNE60
19:00 16.70639NE24NNE60
20:00 15.30619NO18NO60
21:00 14.70656O15O10
22:00 13.907110OSO16SO0
23:00 13.30755OSO13SO0
minuit 13.80716O13OSO0

Graphique du 19-07-2019

 

Serveur OMMA